Regional Weather Roundup
Issued by NWS

Home | Current Version | Previous Version | Graphics & Text | Print | Product List | Glossary On
Versions: 1 2 3 4 5 6 7 8 9 10 11 12 13 14 15 16 17 18 19 20 21 22 23 24 25 26 27 28 29 30 31 32 33 34 35 36 37 38 39 40 41 42 43 44 45 46 47 48 49 50
000
ASUS43 KMKX 210221
RWRWI

WISCONSIN REGIONAL WEATHER ROUNDUP
NATIONAL WEATHER SERVICE MILWAUKEE/SULLIVAN WI
900 PM CDT SAT SEP 20 2014

NOTE: "FAIR" INDICATES FEW OR NO CLOUDS BELOW 12,000 FEET WITH NO
SIGNIFICANT WEATHER AND/OR OBSTRUCTIONS TO VISIBILITY.

WIZ001-002-006>008-014>016-023>028-210300-
NORTHWEST WISCONSIN

CITY           SKY/WX    TMP DP  RH WIND       PRES   REMARKS
SUPERIOR ARPT  LGT RAIN  55  54  95 W5        29.71S
ASHLAND        CLOUDY    59  52  77 W8G17     29.71R
HAYWARD        CLOUDY    55  54  96 SW3       29.74F
SIREN          CLOUDY    56  54  95 W8        29.76S
RICE LAKE      CLOUDY    57  53  87 W10G18    29.78R
LADYSMITH      CLOUDY    56  53  91 NW3       29.76F
EAU CLAIRE     CLOUDY    58  55  90 W6        29.76R
MENOMONIE      MOCLDY    59  57  92 W7        29.78R
NEW RICHMOND   PTCLDY    57  55  93 W9        29.81R
OSCEOLA        PTCLDY    57  56  94 W10G16    29.83R
$$

WIZ003>005-009-010-017-018-210300-
NORTH CENTRAL WISCONSIN

CITY           SKY/WX    TMP DP  RH WIND       PRES   REMARKS
WOODRUFF       CLOUDY    57  53  88 CALM      29.72S
RHINELANDER    CLOUDY    60  52  74 W3        29.73R
EAGLE RIVER    CLOUDY    56  51  84 CALM      29.71S
LAND O LAKES   MOCLDY    51  50  98 CALM      29.72S
PHILLIPS       CLOUDY    54  52  94 W6G18     29.74R
TOMAHAWK       CLOUDY    57  52  82 CALM      29.72S
MEDFORD        TSTM      57  53  87 NW16G44   29.75R
MERRILL        CLOUDY    62  55  76 NW3       29.72R
$$

WIZ029-030-035-036-043>047-210300-
CENTRAL WISCONSIN

CITY           SKY/WX    TMP DP  RH WIND       PRES   REMARKS
WAUSAU         CLOUDY    64  56  75 NW6       29.71R
MOSINEE        PTCLDY    63  57  82 W5        29.73R
MARSHFIELD     RAIN      62  56  80 W37G48    29.75R SQUALL
STEVENS POINT  CLOUDY    64  56  76 CALM      29.72S
WAUPACA        CLOUDY    65  59  81 CALM      29.71S
WAUTOMA        CLOUDY    61  59  93 CALM      29.72S
WISC RAPIDS    CLOUDY    62  58  86 CALM      29.73R
CAMP DOUGLAS   RAIN      63  63 100 W24G33    29.78R FOG
$$

WIZ011>013-019>022-031-037>040-048>050-210300-
NORTHEAST WISCONSIN

CITY           SKY/WX    TMP DP  RH WIND       PRES   REMARKS
ANTIGO         CLOUDY    62  54  75 W8        29.72R
STURGEON BAY   CLOUDY    64  61  88 W7        29.68R
GREEN BAY      PTCLDY    66  58  75 W7        29.69S
MANITOWOC      CLEAR     67  63  87 W7        29.69F
APPLETON       MOCLDY    64  57  77 W8        29.71S
CLINTONVILLE   MOCLDY    64  55  72 W5        29.70R
OSHKOSH        CLEAR     66  60  81 SW5       29.71S
$$

WIZ032>034-041-042-053>061-210300-
SOUTHWEST WISCONSIN

CITY           SKY/WX    TMP DP  RH WIND       PRES   REMARKS
LA CROSSE      LGT RAIN  63  61  93 S7        29.74S
SPARTA         RAIN      61  58  90 S5        29.78R
VIROQUA        CLOUDY    61  61 100 NW15      29.83R
BOSCOBEL       RAIN      65  61  87 W10G24    29.81R
PRAIRIE DU CHI RAIN      63  61  94 NW8G18    29.80R
PLATTEVILLE    FAIR      65  61  86 S7        29.76F
$$

WIZ056-057-062-063-064-067-068-210300-
SOUTH CENTRAL WISCONSIN

CITY           SKY/WX    TMP DP  RH WIND       PRES   REMARKS
BARABOO/DELLS  PTCLDY    64  58  82 CALM      29.73F
LONE ROCK      TSTM      67  60  78 NW6       29.75R
WATERTOWN      CLEAR     60  59  96 CALM      29.74S
MADISON        PTCLDY    69  62  78 SW5       29.74S
MIDDLETON      FAIR      62  62  99 CALM      29.74F
MONROE         CLEAR     66  63  88 SW6       29.77S
JANESVILLE     CLEAR     68  63  83 SW7       29.75F
$$

WIZ051-052-058>065-066-070>072-210300-
SOUTHEAST WISCONSIN

CITY           SKY/WX    TMP DP  RH WIND       PRES   REMARKS
MILWAUKEE      TSTM      67  63  87 SW10      29.75S
WAUKESHA       CLEAR     66  61  82 SW5       29.76S
MILWAUKEE/TIMM CLEAR     66  61  82 S6        29.75S
RACINE         CLEAR     68  62  81 SW8       29.77F
BURLINGTON     CLEAR     62  61  96 SW6       29.76F
KENOSHA        PTCLDY    67  63  87 SW9       29.77F
FOND DU LAC    CLEAR     65  61  87 SW6       29.72S
SHEBOYGAN      CLEAR     64  60  87 SW7       29.71F
WEST BEND      CLEAR     64  57  77 SW6       29.73F
JUNEAU         CLEAR     61  59  93 SW6       29.74S
$$

LSZ147-162-210300-
LAKE SUPERIOR

STATION/POSITION TIME  TEMP    WIND        PRES    WAVE
                       AIR SEA DIR/SP/G            HT/PER
                 (UTC) (F)     (DEG/KT/KT) (MB)    (FT/S)
W MID LAKE BUOY  0150   52 46   70/  4/  4 1005.5F   1/ 3
DEVILS ISLAND    0200   55      50/  7/  7 1005.4R
PORT WING        0100   55     210/  4/  6 1005.4R
SAXON HARBOR     0100   56        CALM     1005.4S
$$

LMZ867-665-643>646-210300-
LAKE MICHIGAN

STATION/POSITION TIME  TEMP    WIND        PRES    WAVE
                       AIR SEA DIR/SP/G            HT/PER
                 (UTC) (F)     (DEG/KT/KT) (MB)    (FT/S)
N MID LAKE BUOY  0150   61 58   40/ 10/ 12 1005.2R   4/ 7
NORTHPORT PIER   0100   66     290/  6/  8 1004.4R
SISTER BAY       0127             CALM       N/A
KEWAUNEE LAKESHO 0200   67     270/  5/  8 1004.1F
SHEBOYGAN LAKESH 0200   68 53  230/ 10/ 11 1005.9F
PORT WASHINGTON  0140   69     250/  4/  6 1007.1S
ATWATER BUOY     0200   64     210/  8/ 10 1008.0F
MILWAUKEE LAKESH 0200   70     220/  9/ 10   N/A
S MID LAKE BUOY  0150   67 63  210/ 12/ 14 1007.7F
KENOSHA   LAKESH 0200   70     210/  8/ 14 1007.5F
$$

TC  - TEMPERATURE IN CELSIUS
VSB - VISIBILITY IN STATUTE MILES
WCI - WIND CHILL INDEX
HX  - HEAT INDEX




USA.gov is the U.S. government's official web portal to all federal, state and local government web resources and services.